Weather History for Mineral Point, WI

Change the Weather History Date:

Sunday, September 8, 2013

  Actual Average (KLNR) Record (KLNR)
Temperature  
Mean Temperature 70 °F -  
Max Temperature 77 °F 75 °F 89 °F (2002)
Min Temperature 64 °F 51 °F 45 °F (2004)
Cooling Degree Days 6    
Growing Degree Days 20 (Base 50)    
Moisture  
Dew Point 62 °F    
Average Humidity 76    
Maximum Humidity 88    
Minimum Humidity 65    
Precipitation  
Precipitation 0.00 in - - ()
Sea Level Pressure  
Sea Level Pressure 30.01 in    
Wind  
Wind Speed 12 mph (East)    
Max Wind Speed 18 mph    
Max Gust Speed 25 mph    
Visibility 10 miles    
Events      
Averages and records for this station are not official NWS values.
T = Trace of Precipitation, MM = Missing Value Source: NWS Daily Summary

Daily Weather History Graph

Daily Weather History Graph

Search for Another Location

Airport:

Trip Planner

Search our weather history database for the weather conditions in past years. The results will help you decide how hot, cold, wet, or windy it might be!

Date:

Astronomy

Sep. 08, 2013 Rise Set
Actual Time 6:33 AM CDT 7:22 PM CDT
Civil Twilight 6:04 AM CDT 7:51 PM CDT
Nautical Twilight 5:30 AM CDT 8:25 PM CDT
Astronomical Twilight 4:54 AM CDT 9:00 PM CDT
Moon 9:57 AM CDT (9/8) 8:51 PM CDT (9/8)
Length of Visible Light 13h 46m
Length of Day
12h 49m
Waxing Crescent, 11% of the Moon is Illuminated
Sep 8
Waxing Crescent
Sep 12
First Quarter
Sep 19
Full
Sep 26
Last Quarter
Oct 4
New

Hourly Weather History & Observations

Time (CDT) Temp. Dew Point Humidity Pressure Visibility Wind Dir Wind Speed Gust Speed Precip Events Conditions
12:15 AM 77.0 °F 69.8 °F 78% 29.97 in 10.0 mi ENE 10.4 mph - N/A   Scattered Clouds
12:35 AM 75.2 °F 68.0 °F 78% 29.97 in 10.0 mi ENE 12.7 mph 18.4 mph N/A   Scattered Clouds
12:55 AM 73.4 °F 68.0 °F 83% 29.98 in 10.0 mi ENE 12.7 mph 17.3 mph N/A   Clear
1:15 AM 73.4 °F 66.2 °F 78% 29.99 in 10.0 mi ENE 13.8 mph 19.6 mph N/A   Clear
1:35 AM 71.6 °F 66.2 °F 83% 29.99 in 10.0 mi ENE 15.0 mph - N/A   Clear
1:55 AM 71.6 °F 68.0 °F 88% 29.99 in 10.0 mi ENE 15.0 mph 18.4 mph N/A   Scattered Clouds
2:15 AM 71.6 °F 66.2 °F 83% 29.98 in 10.0 mi ENE 17.3 mph - N/A   Overcast
2:35 AM 71.6 °F 66.2 °F 83% 29.99 in 10.0 mi ENE 13.8 mph - N/A   Overcast
2:55 AM 71.6 °F 64.4 °F 78% 30.00 in 10.0 mi ENE 17.3 mph 21.9 mph N/A   Overcast
3:15 AM 71.6 °F 64.4 °F 78% 30.01 in 10.0 mi ENE 18.4 mph 25.3 mph N/A   Overcast
3:35 AM 69.8 °F 64.4 °F 83% 30.01 in 10.0 mi ENE 13.8 mph 21.9 mph N/A   Overcast
3:55 AM 69.8 °F 64.4 °F 83% 30.01 in 10.0 mi East 11.5 mph 17.3 mph N/A   Overcast
4:15 AM 69.8 °F 62.6 °F 78% 30.01 in 10.0 mi NE 13.8 mph 20.7 mph N/A   Overcast
4:35 AM 68.0 °F 62.6 °F 83% 30.01 in 10.0 mi ENE 18.4 mph 23.0 mph N/A   Overcast
4:55 AM 68.0 °F 60.8 °F 78% 30.01 in 10.0 mi NE 15.0 mph 19.6 mph N/A   Overcast
5:15 AM 68.0 °F 60.8 °F 78% 30.01 in 10.0 mi ENE 17.3 mph 23.0 mph N/A   Overcast
5:35 AM 66.2 °F 60.8 °F 83% 30.01 in 10.0 mi ENE 16.1 mph - N/A   Overcast
5:55 AM 66.2 °F 60.8 °F 83% 30.03 in 10.0 mi ENE 15.0 mph 21.9 mph N/A   Overcast
6:15 AM 66.2 °F 59.0 °F 78% 30.03 in 10.0 mi ENE 15.0 mph 20.7 mph N/A   Overcast
6:35 AM 66.2 °F 59.0 °F 78% 30.04 in 10.0 mi ENE 12.7 mph 19.6 mph N/A   Overcast
6:55 AM 66.2 °F 59.0 °F 78% 30.04 in 10.0 mi ENE 13.8 mph 21.9 mph N/A   Overcast
7:15 AM 64.4 °F 59.0 °F 83% 30.04 in 10.0 mi ENE 15.0 mph 20.7 mph N/A   Overcast
7:35 AM 64.4 °F 59.0 °F 83% 30.04 in 10.0 mi ENE 12.7 mph - N/A   Overcast
7:55 AM 66.2 °F 59.0 °F 78% 30.04 in 10.0 mi East 13.8 mph 19.6 mph N/A   Overcast
8:15 AM 66.2 °F 59.0 °F 78% 30.04 in 10.0 mi East 12.7 mph - N/A   Overcast
8:35 AM 66.2 °F 59.0 °F 78% 30.04 in 10.0 mi East 11.5 mph - N/A   Overcast
8:55 AM 66.2 °F 59.0 °F 78% 30.04 in 10.0 mi East 9.2 mph - N/A   Overcast
9:15 AM 68.0 °F 59.0 °F 73% 30.06 in 10.0 mi ENE 11.5 mph - N/A   Overcast
9:35 AM 66.2 °F 59.0 °F 78% 30.07 in 10.0 mi East 10.4 mph 16.1 mph N/A   Overcast
9:55 AM 66.2 °F 60.8 °F 83% 30.07 in 10.0 mi ENE 10.4 mph - N/A   Overcast
10:15 AM 68.0 °F 60.8 °F 78% 30.07 in 10.0 mi East 10.4 mph - N/A   Overcast
10:35 AM 68.0 °F 60.8 °F 78% 30.07 in 10.0 mi East 10.4 mph - N/A   Overcast
10:55 AM 68.0 °F 60.8 °F 78% 30.07 in 10.0 mi East 10.4 mph - N/A   Overcast
11:15 AM 69.8 °F 60.8 °F 73% 30.07 in 10.0 mi ENE 10.4 mph - N/A   Overcast
11:35 AM 69.8 °F 60.8 °F 73% 30.07 in 10.0 mi East 11.5 mph - N/A   Overcast
11:55 AM 69.8 °F 60.8 °F 73% 30.07 in 10.0 mi ENE 10.4 mph 16.1 mph N/A   Overcast
12:15 PM 69.8 °F 60.8 °F 73% 30.07 in 10.0 mi ENE 11.5 mph - N/A   Overcast
12:35 PM 71.6 °F 62.6 °F 73% 30.07 in 10.0 mi East 8.1 mph - N/A   Overcast
12:55 PM 71.6 °F 62.6 °F 73% 30.06 in 10.0 mi East 9.2 mph - N/A   Overcast
1:15 PM 71.6 °F 62.6 °F 73% 30.05 in 10.0 mi ENE 10.4 mph - N/A   Overcast
1:35 PM 71.6 °F 62.6 °F 73% 30.05 in 10.0 mi East 9.2 mph 18.4 mph N/A   Overcast
1:55 PM 71.6 °F 62.6 °F 73% 30.04 in 10.0 mi East 10.4 mph - N/A   Overcast
2:15 PM 73.4 °F 62.6 °F 69% 30.03 in 10.0 mi East 9.2 mph - N/A   Overcast
2:35 PM 73.4 °F 62.6 °F 69% 30.03 in 10.0 mi East 10.4 mph - N/A   Overcast
2:55 PM 73.4 °F 62.6 °F 69% 30.02 in 10.0 mi ENE 11.5 mph - N/A   Overcast
3:15 PM 73.4 °F 62.6 °F 69% 30.01 in 10.0 mi East 9.2 mph - N/A   Overcast
3:35 PM 73.4 °F 62.6 °F 69% 30.01 in 10.0 mi East 9.2 mph 16.1 mph N/A   Overcast
3:55 PM 73.4 °F 62.6 °F 69% 29.99 in 10.0 mi East 13.8 mph 17.3 mph N/A   Overcast
4:15 PM 75.2 °F 62.6 °F 65% 29.98 in 10.0 mi East 15.0 mph 20.7 mph N/A   Overcast
4:35 PM 73.4 °F 62.6 °F 69% 29.98 in 10.0 mi East 9.2 mph - N/A   Overcast
4:55 PM 75.2 °F 64.4 °F 69% 29.97 in 10.0 mi East 10.4 mph 16.1 mph N/A   Overcast
5:15 PM 73.4 °F 62.6 °F 69% 29.97 in 10.0 mi East 10.4 mph 18.4 mph N/A   Overcast
5:35 PM 73.4 °F 62.6 °F 69% 29.96 in 10.0 mi East 13.8 mph - N/A   Overcast
5:55 PM 73.4 °F 62.6 °F 69% 29.96 in 10.0 mi East 10.4 mph - N/A   Overcast
6:15 PM 71.6 °F 62.6 °F 73% 29.96 in 10.0 mi East 9.2 mph 17.3 mph N/A   Overcast
6:35 PM 71.6 °F 62.6 °F 73% 29.96 in 10.0 mi ESE 9.2 mph - N/A   Overcast
6:55 PM 71.6 °F 62.6 °F 73% 29.96 in 10.0 mi ESE 8.1 mph - N/A   Overcast
7:15 PM 71.6 °F 62.6 °F 73% 29.97 in 10.0 mi ESE 8.1 mph - N/A   Overcast
7:35 PM 71.6 °F 62.6 °F 73% 29.97 in 10.0 mi ESE 9.2 mph - N/A   Overcast
7:55 PM 71.6 °F 62.6 °F 73% 29.97 in 10.0 mi ESE 8.1 mph - N/A   Overcast
8:15 PM 71.6 °F 62.6 °F 73% 29.97 in 10.0 mi East 8.1 mph - N/A   Overcast
8:35 PM 69.8 °F 62.6 °F 78% 29.98 in 10.0 mi East 8.1 mph - N/A   Overcast
8:55 PM 69.8 °F 62.6 °F 78% 29.98 in 10.0 mi East 5.8 mph - N/A   Mostly Cloudy
9:15 PM 69.8 °F 62.6 °F 78% 29.97 in 10.0 mi East 8.1 mph - N/A   Mostly Cloudy
9:35 PM 69.8 °F 62.6 °F 78% 29.97 in 10.0 mi East 6.9 mph - N/A   Overcast
9:55 PM 69.8 °F 62.6 °F 78% 29.97 in 10.0 mi East 8.1 mph - N/A   Overcast
10:15 PM 69.8 °F 62.6 °F 78% 29.97 in 10.0 mi ESE 8.1 mph - N/A   Overcast
10:35 PM 69.8 °F 62.6 °F 78% 29.97 in 10.0 mi East 9.2 mph - N/A   Scattered Clouds
10:55 PM 69.8 °F 62.6 °F 78% 29.97 in 10.0 mi East 9.2 mph - N/A   Mostly Cloudy
11:15 PM 69.8 °F 62.6 °F 78% 29.97 in 10.0 mi East 10.4 mph - N/A   Overcast
11:35 PM 69.8 °F 62.6 °F 78% 29.97 in 10.0 mi East 9.2 mph - N/A   Mostly Cloudy
11:55 PM 69.8 °F 62.6 °F 78% 29.96 in 10.0 mi ESE 11.5 mph 16.1 mph N/A   Overcast